Tracking 30009 objects as of 7-Dec-2024
HD Live streaming from Space Station
objects crossing your sky now

STARLINK-30766

Track STARLINK-30766 now!
10-day predictions
STARLINK-30766 is classified as:


NORAD ID: 58125
Int'l Code: 2023-162H
Perigee: 565.3 km
Apogee: 567.1 km
Inclination: 43.0 °
Period: 95.8 minutes
Semi major axis: 6937 km
RCS: Unknown
Launch date: October 22, 2023
Source: United States (US)
Launch site: AIR FORCE EASTERN TEST RANGE (AFETR)
Your satellite tracking list
Your tracking list is empty




NASA's NSSDC Master Catalog

Two Line Element Set (TLE):
1 58125U 23162H   24341.74247775 -.00001176  00000-0 -71986-4 0  9994
2 58125  43.0035 101.3843 0001336 272.6295  87.4394 15.02537333 63415
Source of the keplerian elements: AFSPC